LOCATION_NAME,SAMPLE COLLECTION TIME,DOSE EQUIVALENT RATE (nSv/h),GAMMA COUNT RATE R02 (CPM),GAMMA COUNT RATE R03 (CPM),GAMMA COUNT RATE R04 (CPM),GAMMA COUNT RATE R05 (CPM),GAMMA COUNT RATE R06 (CPM),GAMMA COUNT RATE R07 (CPM),GAMMA COUNT RATE R08 (CPM),GAMMA COUNT RATE R09 (CPM),STATUS
IA: MASON CITY,01/01/2012 00:41:00,,2394.00,1686.00,473.00,293.00,160.00,187.00,122.00,46.00,APPROVED
IA: MASON CITY,01/01/2012 01:41:00,,2397.00,1678.00,474.00,291.00,158.00,187.00,124.00,49.00,APPROVED
IA: MASON CITY,01/01/2012 02:41:00,,2417.00,1675.00,483.00,291.00,162.00,189.00,122.00,45.00,APPROVED
IA: MASON CITY,01/01/2012 03:41:00,,2504.00,1757.00,490.00,303.00,164.00,192.00,122.00,48.00,APPROVED
IA: MASON CITY,01/01/2012 04:41:00,,2673.00,1897.00,519.00,337.00,171.00,209.00,131.00,51.00,APPROVED
IA: MASON CITY,01/01/2012 05:42:00,,2773.00,1979.00,541.00,350.00,179.00,212.00,133.00,54.00,APPROVED
IA: MASON CITY,01/01/2012 06:42:00,,2759.00,1962.00,538.00,338.00,178.00,210.00,129.00,53.00,APPROVED
IA: MASON CITY,01/01/2012 07:42:00,,2774.00,2016.00,548.00,365.00,183.00,222.00,136.00,55.00,APPROVED
IA: MASON CITY,01/01/2012 08:42:00,,2605.00,1895.00,521.00,343.00,176.00,214.00,136.00,54.00,APPROVED
IA: MASON CITY,01/01/2012 09:43:00,,2514.00,1763.00,499.00,301.00,166.00,193.00,119.00,48.00,APPROVED
IA: MASON CITY,01/01/2012 10:43:00,,2468.00,1694.00,480.00,282.00,158.00,180.00,119.00,44.00,APPROVED
IA: MASON CITY,01/01/2012 11:43:00,,2424.00,1625.00,472.00,271.00,152.00,171.00,116.00,43.00,APPROVED
IA: MASON CITY,01/01/2012 12:43:00,,2403.00,1608.00,474.00,258.00,148.00,170.00,111.00,42.00,APPROVED
IA: MASON CITY,01/01/2012 13:43:00,,2401.00,1598.00,467.00,259.00,150.00,168.00,112.00,41.00,APPROVED
IA: MASON CITY,01/01/2012 14:44:00,,2391.00,1586.00,459.00,254.00,147.00,165.00,110.00,41.00,APPROVED
IA: MASON CITY,01/01/2012 15:44:00,,2389.00,1574.00,460.00,248.00,146.00,164.00,107.00,39.00,APPROVED
IA: MASON CITY,01/01/2012 16:44:00,,2375.00,1565.00,458.00,249.00,145.00,162.00,109.00,40.00,APPROVED
IA: MASON CITY,01/01/2012 17:44:00,,2357.00,1573.00,455.00,253.00,148.00,164.00,111.00,41.00,APPROVED
IA: MASON CITY,01/01/2012 18:45:00,,2367.00,1554.00,454.00,250.00,144.00,165.00,112.00,41.00,APPROVED
IA: MASON CITY,01/01/2012 19:45:00,,2360.00,1561.00,452.00,257.00,146.00,163.00,110.00,41.00,APPROVED
IA: MASON CITY,01/01/2012 20:45:00,,2365.00,1564.00,455.00,251.00,147.00,164.00,109.00,40.00,APPROVED
IA: MASON CITY,01/01/2012 21:45:00,,2395.00,1603.00,461.00,254.00,147.00,172.00,112.00,41.00,APPROVED
IA: MASON CITY,01/01/2012 22:45:00,,2420.00,1612.00,467.00,262.00,148.00,171.00,111.00,41.00,APPROVED
IA: MASON CITY,01/01/2012 23:46:00,,2399.00,1587.00,461.00,255.00,149.00,170.00,113.00,41.00,APPROVED
IA: MASON CITY,01/02/2012 00:46:00,,2368.00,1559.00,459.00,247.00,148.00,166.00,109.00,39.00,APPROVED
IA: MASON CITY,01/02/2012 01:46:00,,2354.00,1550.00,451.00,242.00,143.00,163.00,106.00,39.00,APPROVED
IA: MASON CITY,01/02/2012 02:46:00,,2367.00,1554.00,452.00,242.00,145.00,166.00,108.00,39.00,APPROVED
IA: MASON CITY,01/02/2012 03:46:00,,2378.00,1576.00,461.00,244.00,145.00,167.00,108.00,39.00,APPROVED
IA: MASON CITY,01/02/2012 04:47:00,,2397.00,1589.00,460.00,250.00,150.00,166.00,110.00,40.00,APPROVED
IA: MASON CITY,01/02/2012 05:47:00,,2417.00,1616.00,468.00,254.00,151.00,174.00,109.00,41.00,APPROVED
IA: MASON CITY,01/02/2012 06:47:00,,2399.00,1607.00,467.00,248.00,145.00,169.00,111.00,40.00,APPROVED
IA: MASON CITY,01/02/2012 07:47:00,,2406.00,1610.00,464.00,248.00,148.00,169.00,110.00,38.00,APPROVED
IA: MASON CITY,01/02/2012 08:47:00,,2386.00,1586.00,460.00,252.00,145.00,168.00,109.00,40.00,APPROVED
IA: MASON CITY,01/02/2012 09:48:00,,2357.00,1578.00,459.00,248.00,147.00,165.00,108.00,39.00,APPROVED
IA: MASON CITY,01/02/2012 10:48:00,,2375.00,1572.00,460.00,247.00,147.00,163.00,107.00,39.00,APPROVED
IA: MASON CITY,01/02/2012 11:48:00,,2364.00,1566.00,456.00,243.00,147.00,165.00,111.00,39.00,APPROVED
IA: MASON CITY,01/02/2012 12:48:00,,2376.00,1559.00,459.00,247.00,145.00,164.00,111.00,37.00,APPROVED
IA: MASON CITY,01/02/2012 13:49:00,,2359.00,1566.00,455.00,247.00,143.00,164.00,111.00,39.00,APPROVED
IA: MASON CITY,01/02/2012 14:49:00,,2370.00,1571.00,459.00,246.00,146.00,166.00,108.00,39.00,APPROVED
IA: MASON CITY,01/02/2012 15:49:00,,2389.00,1578.00,459.00,249.00,145.00,168.00,111.00,38.00,APPROVED
IA: MASON CITY,01/02/2012 16:49:00,,2378.00,1585.00,460.00,249.00,147.00,168.00,109.00,40.00,APPROVED
IA: MASON CITY,01/02/2012 17:49:00,,2371.00,1579.00,459.00,243.00,145.00,165.00,110.00,38.00,APPROVED
IA: MASON CITY,01/02/2012 18:50:00,,2379.00,1574.00,460.00,251.00,145.00,167.00,107.00,40.00,APPROVED
IA: MASON CITY,01/02/2012 19:50:00,,2359.00,1561.00,461.00,247.00,146.00,165.00,109.00,39.00,APPROVED
IA: MASON CITY,01/02/2012 20:50:00,,2365.00,1555.00,452.00,243.00,147.00,166.00,107.00,39.00,APPROVED
IA: MASON CITY,01/02/2012 21:50:00,,2359.00,1554.00,451.00,241.00,145.00,162.00,107.00,38.00,APPROVED
IA: MASON CITY,01/02/2012 22:51:00,,2354.00,1545.00,450.00,239.00,144.00,162.00,106.00,39.00,APPROVED
IA: MASON CITY,01/02/2012 23:51:00,,2355.00,1550.00,453.00,242.00,146.00,161.00,108.00,39.00,APPROVED
IA: MASON CITY,01/03/2012 00:51:00,,2358.00,1561.00,453.00,240.00,147.00,166.00,107.00,39.00,APPROVED
IA: MASON CITY,01/03/2012 01:51:00,,2380.00,1570.00,456.00,245.00,146.00,164.00,108.00,40.00,APPROVED
IA: MASON CITY,01/03/2012 02:51:00,,2389.00,1583.00,454.00,247.00,147.00,169.00,108.00,41.00,APPROVED
IA: MASON CITY,01/03/2012 03:52:00,,2376.00,1576.00,458.00,245.00,152.00,166.00,108.00,39.00,APPROVED
IA: MASON CITY,01/03/2012 04:52:00,,2399.00,1589.00,465.00,253.00,148.00,168.00,109.00,40.00,APPROVED
IA: MASON CITY,01/03/2012 05:52:00,,2422.00,1613.00,460.00,256.00,146.00,168.00,109.00,41.00,APPROVED
IA: MASON CITY,01/03/2012 06:52:00,,2413.00,1607.00,468.00,257.00,151.00,169.00,113.00,41.00,APPROVED
IA: MASON CITY,01/03/2012 07:52:00,,2417.00,1615.00,465.00,258.00,150.00,172.00,112.00,39.00,APPROVED
IA: MASON CITY,01/03/2012 08:53:00,,2431.00,1638.00,473.00,258.00,153.00,170.00,111.00,40.00,APPROVED
IA: MASON CITY,01/03/2012 09:53:00,,2474.00,1698.00,485.00,273.00,156.00,181.00,116.00,43.00,APPROVED
IA: MASON CITY,01/03/2012 10:53:00,,2461.00,1702.00,490.00,282.00,158.00,187.00,119.00,44.00,APPROVED
IA: MASON CITY,01/03/2012 11:53:00,,2451.00,1680.00,483.00,280.00,156.00,180.00,117.00,42.00,APPROVED
IA: MASON CITY,01/03/2012 12:54:00,,2424.00,1652.00,475.00,269.00,154.00,177.00,112.00,43.00,APPROVED
IA: MASON CITY,01/03/2012 13:54:00,,2412.00,1642.00,474.00,264.00,151.00,173.00,111.00,43.00,APPROVED
IA: MASON CITY,01/03/2012 14:54:00,,2424.00,1639.00,472.00,262.00,151.00,176.00,113.00,41.00,APPROVED
IA: MASON CITY,01/03/2012 15:54:00,,2404.00,1608.00,465.00,258.00,150.00,170.00,109.00,39.00,APPROVED
IA: MASON CITY,01/03/2012 16:54:00,,2394.00,1589.00,460.00,248.00,147.00,167.00,106.00,39.00,APPROVED
IA: MASON CITY,01/03/2012 17:55:00,,2402.00,1593.00,466.00,247.00,150.00,168.00,110.00,39.00,APPROVED
IA: MASON CITY,01/03/2012 18:55:00,,2396.00,1592.00,459.00,250.00,150.00,164.00,109.00,40.00,APPROVED
IA: MASON CITY,01/03/2012 19:55:00,,2412.00,1588.00,459.00,255.00,151.00,166.00,110.00,40.00,APPROVED
IA: MASON CITY,01/03/2012 20:55:00,,2393.00,1589.00,458.00,253.00,147.00,167.00,109.00,40.00,APPROVED
IA: MASON CITY,01/03/2012 21:56:00,,2379.00,1577.00,459.00,257.00,147.00,168.00,111.00,42.00,APPROVED
IA: MASON CITY,01/03/2012 22:56:00,,2387.00,1576.00,451.00,256.00,149.00,166.00,109.00,42.00,APPROVED
IA: MASON CITY,01/03/2012 23:56:00,,2380.00,1582.00,454.00,255.00,148.00,170.00,113.00,41.00,APPROVED
IA: MASON CITY,01/04/2012 00:56:00,,2404.00,1588.00,459.00,255.00,147.00,167.00,111.00,41.00,APPROVED
IA: MASON CITY,01/04/2012 01:56:00,,2417.00,1601.00,461.00,261.00,151.00,169.00,111.00,41.00,APPROVED
IA: MASON CITY,01/04/2012 02:57:00,,2454.00,1630.00,473.00,263.00,151.00,174.00,113.00,42.00,APPROVED
IA: MASON CITY,01/04/2012 03:57:00,,2506.00,1654.00,476.00,274.00,156.00,175.00,114.00,41.00,APPROVED
IA: MASON CITY,01/04/2012 04:57:00,,2541.00,1702.00,489.00,277.00,158.00,184.00,118.00,43.00,APPROVED
IA: MASON CITY,01/04/2012 05:57:00,,2586.00,1752.00,495.00,288.00,161.00,191.00,120.00,44.00,APPROVED
IA: MASON CITY,01/04/2012 06:57:00,,2644.00,1801.00,515.00,297.00,163.00,193.00,121.00,45.00,APPROVED
IA: MASON CITY,01/04/2012 07:58:00,,2729.00,1876.00,536.00,313.00,174.00,203.00,127.00,47.00,APPROVED
IA: MASON CITY,01/04/2012 08:58:00,,2756.00,1943.00,552.00,337.00,180.00,213.00,132.00,50.00,APPROVED
IA: MASON CITY,01/04/2012 09:58:00,,2755.00,1940.00,549.00,340.00,179.00,217.00,133.00,49.00,APPROVED
IA: MASON CITY,01/04/2012 10:58:00,,2734.00,1918.00,545.00,335.00,181.00,212.00,129.00,50.00,APPROVED
IA: MASON CITY,01/04/2012 11:59:00,,2686.00,1896.00,533.00,325.00,171.00,209.00,132.00,47.00,APPROVED
IA: MASON CITY,01/04/2012 12:59:00,,2638.00,1844.00,525.00,321.00,175.00,201.00,128.00,49.00,APPROVED
IA: MASON CITY,01/04/2012 13:59:00,,2590.00,1798.00,512.00,306.00,165.00,198.00,121.00,46.00,APPROVED
IA: MASON CITY,01/04/2012 14:59:00,,2560.00,1772.00,509.00,296.00,166.00,195.00,123.00,45.00,APPROVED
IA: MASON CITY,01/04/2012 15:59:00,,2563.00,1783.00,510.00,308.00,166.00,195.00,126.00,46.00,APPROVED
IA: MASON CITY,01/04/2012 17:00:00,,2508.00,1761.00,502.00,307.00,164.00,193.00,125.00,48.00,APPROVED
IA: MASON CITY,01/04/2012 18:00:00,,2434.00,1703.00,484.00,300.00,162.00,190.00,122.00,45.00,APPROVED
IA: MASON CITY,01/04/2012 19:00:00,,2371.00,1666.00,474.00,294.00,159.00,186.00,120.00,48.00,APPROVED
IA: MASON CITY,01/04/2012 20:00:00,,2325.00,1628.00,466.00,285.00,158.00,184.00,123.00,45.00,APPROVED
IA: MASON CITY,01/04/2012 21:00:00,,2320.00,1621.00,467.00,282.00,158.00,183.00,119.00,45.00,APPROVED
IA: MASON CITY,01/04/2012 22:01:00,,2364.00,1654.00,470.00,285.00,157.00,184.00,121.00,47.00,APPROVED
IA: MASON CITY,01/04/2012 23:01:00,,2413.00,1686.00,478.00,289.00,158.00,184.00,119.00,46.00,APPROVED
IA: MASON CITY,01/05/2012 00:01:00,,2437.00,1713.00,479.00,297.00,159.00,189.00,120.00,47.00,APPROVED
IA: MASON CITY,01/05/2012 01:01:00,,2486.00,1745.00,488.00,301.00,163.00,190.00,124.00,49.00,APPROVED
IA: MASON CITY,01/05/2012 02:02:00,,2513.00,1756.00,496.00,302.00,163.00,191.00,126.00,49.00,APPROVED
IA: MASON CITY,01/05/2012 03:02:00,,2527.00,1768.00,493.00,309.00,169.00,193.00,124.00,49.00,APPROVED
IA: MASON CITY,01/05/2012 04:02:00,,2541.00,1765.00,497.00,303.00,166.00,192.00,123.00,47.00,APPROVED
IA: MASON CITY,01/05/2012 05:02:00,,2562.00,1781.00,502.00,306.00,164.00,194.00,125.00,46.00,APPROVED
IA: MASON CITY,01/05/2012 06:02:00,,2600.00,1802.00,505.00,311.00,166.00,196.00,124.00,49.00,APPROVED
IA: MASON CITY,01/05/2012 07:03:00,,2630.00,1846.00,512.00,321.00,169.00,202.00,128.00,49.00,APPROVED
IA: MASON CITY,01/05/2012 08:03:00,,2646.00,1872.00,526.00,326.00,175.00,206.00,129.00,52.00,APPROVED
IA: MASON CITY,01/05/2012 09:03:00,,2669.00,1906.00,527.00,339.00,179.00,211.00,133.00,52.00,APPROVED
IA: MASON CITY,01/05/2012 10:03:00,,2682.00,1936.00,540.00,345.00,181.00,213.00,134.00,55.00,APPROVED
IA: MASON CITY,01/05/2012 11:03:00,,2723.00,1972.00,547.00,354.00,181.00,218.00,137.00,53.00,APPROVED
IA: MASON CITY,01/05/2012 12:04:00,,2753.00,2017.00,558.00,370.00,188.00,223.00,141.00,54.00,APPROVED
IA: MASON CITY,01/05/2012 13:04:00,,2814.00,2102.00,586.00,389.00,195.00,236.00,145.00,56.00,APPROVED
IA: MASON CITY,01/05/2012 14:05:00,,2879.00,2176.00,604.00,406.00,202.00,247.00,150.00,59.00,APPROVED
IA: MASON CITY,01/05/2012 15:05:00,,2893.00,2195.00,604.00,414.00,201.00,253.00,151.00,61.00,APPROVED
IA: MASON CITY,01/05/2012 16:06:00,,2827.00,2140.00,584.00,408.00,203.00,248.00,151.00,59.00,APPROVED
IA: MASON CITY,01/05/2012 17:06:00,,2760.00,2110.00,572.00,409.00,200.00,243.00,149.00,64.00,APPROVED
IA: MASON CITY,01/05/2012 18:06:00,,2657.00,2025.00,560.00,398.00,192.00,238.00,148.00,62.00,APPROVED
IA: MASON CITY,01/05/2012 19:06:00,,2486.00,1892.00,526.00,367.00,184.00,226.00,140.00,60.00,APPROVED
IA: MASON CITY,01/05/2012 20:06:00,,2374.00,1796.00,509.00,348.00,177.00,218.00,136.00,57.00,APPROVED
IA: MASON CITY,01/05/2012 21:07:00,,2334.00,1747.00,507.00,339.00,176.00,215.00,135.00,54.00,APPROVED
IA: MASON CITY,01/05/2012 22:07:00,,2364.00,1760.00,504.00,341.00,175.00,214.00,137.00,57.00,APPROVED
IA: MASON CITY,01/05/2012 23:07:00,,2368.00,1772.00,509.00,337.00,172.00,215.00,134.00,55.00,APPROVED
IA: MASON CITY,01/06/2012 00:07:00,,2415.00,1794.00,510.00,337.00,173.00,214.00,134.00,54.00,APPROVED
IA: MASON CITY,01/06/2012 01:08:00,,2457.00,1832.00,509.00,342.00,177.00,211.00,132.00,56.00,APPROVED
IA: MASON CITY,01/06/2012 15:48:00,,2298.00,1485.00,431.00,236.00,143.00,161.00,104.00,34.00,APPROVED
IA: MASON CITY,01/06/2012 16:49:00,,2286.00,1487.00,433.00,236.00,144.00,162.00,107.00,39.00,APPROVED
IA: MASON CITY,01/06/2012 17:49:00,,2266.00,1522.00,434.00,247.00,145.00,170.00,111.00,40.00,APPROVED
IA: MASON CITY,01/06/2012 18:49:00,,2259.00,1528.00,438.00,255.00,147.00,168.00,110.00,40.00,APPROVED
IA: MASON CITY,01/06/2012 19:49:00,,2269.00,1537.00,441.00,257.00,147.00,173.00,112.00,41.00,APPROVED
IA: MASON CITY,01/06/2012 20:49:00,,2278.00,1540.00,445.00,259.00,150.00,172.00,115.00,42.00,APPROVED
IA: MASON CITY,01/06/2012 21:50:00,,2259.00,1517.00,442.00,253.00,145.00,168.00,111.00,39.00,APPROVED
IA: MASON CITY,01/06/2012 22:50:00,,2288.00,1544.00,437.00,257.00,146.00,170.00,114.00,41.00,APPROVED
IA: MASON CITY,01/06/2012 23:50:00,,2385.00,1598.00,448.00,265.00,151.00,173.00,113.00,41.00,APPROVED
IA: MASON CITY,01/07/2012 00:50:00,,2429.00,1637.00,465.00,268.00,153.00,174.00,113.00,41.00,APPROVED
IA: MASON CITY,01/07/2012 01:50:00,,2424.00,1642.00,459.00,265.00,153.00,175.00,116.00,42.00,APPROVED
IA: MASON CITY,01/07/2012 02:51:00,,2416.00,1617.00,465.00,267.00,153.00,175.00,113.00,42.00,APPROVED
IA: MASON CITY,01/07/2012 03:51:00,,2379.00,1593.00,454.00,257.00,147.00,169.00,113.00,41.00,APPROVED
IA: MASON CITY,01/07/2012 04:51:00,,2380.00,1584.00,452.00,254.00,148.00,170.00,111.00,41.00,APPROVED
IA: MASON CITY,01/07/2012 05:51:00,,2402.00,1587.00,451.00,255.00,151.00,165.00,110.00,40.00,APPROVED
IA: MASON CITY,01/07/2012 06:52:00,,2400.00,1581.00,447.00,258.00,150.00,170.00,111.00,40.00,APPROVED
IA: MASON CITY,01/07/2012 07:52:00,,2392.00,1595.00,454.00,260.00,154.00,169.00,111.00,40.00,APPROVED
IA: MASON CITY,01/07/2012 08:52:00,,2401.00,1601.00,455.00,258.00,146.00,171.00,107.00,40.00,APPROVED
IA: MASON CITY,01/07/2012 09:52:00,,2415.00,1595.00,463.00,260.00,152.00,170.00,113.00,38.00,APPROVED
IA: MASON CITY,01/07/2012 10:52:00,,2399.00,1594.00,458.00,255.00,150.00,168.00,109.00,42.00,APPROVED
IA: MASON CITY,01/07/2012 11:53:00,,2390.00,1581.00,453.00,258.00,150.00,169.00,110.00,40.00,APPROVED
IA: MASON CITY,01/07/2012 12:53:00,,2395.00,1576.00,457.00,250.00,149.00,166.00,111.00,40.00,APPROVED
IA: MASON CITY,01/07/2012 13:53:00,,2402.00,1576.00,455.00,254.00,148.00,167.00,109.00,41.00,APPROVED
IA: MASON CITY,01/07/2012 14:53:00,,2400.00,1595.00,460.00,255.00,151.00,168.00,113.00,41.00,APPROVED
IA: MASON CITY,01/07/2012 15:54:00,,2380.00,1589.00,453.00,258.00,147.00,172.00,111.00,41.00,APPROVED
IA: MASON CITY,01/07/2012 16:54:00,,2360.00,1585.00,449.00,265.00,149.00,171.00,112.00,41.00,APPROVED
IA: MASON CITY,01/07/2012 17:54:00,,2355.00,1584.00,452.00,258.00,148.00,169.00,112.00,40.00,APPROVED
IA: MASON CITY,01/07/2012 18:54:00,,2301.00,1547.00,448.00,257.00,148.00,168.00,111.00,40.00,APPROVED
IA: MASON CITY,01/07/2012 19:54:00,,2292.00,1545.00,443.00,256.00,148.00,171.00,110.00,40.00,APPROVED
IA: MASON CITY,01/07/2012 20:55:00,,2291.00,1541.00,443.00,255.00,145.00,167.00,112.00,41.00,APPROVED
IA: MASON CITY,01/07/2012 21:55:00,,2325.00,1563.00,446.00,257.00,148.00,170.00,108.00,39.00,APPROVED
IA: MASON CITY,01/07/2012 22:55:00,,2347.00,1576.00,448.00,259.00,149.00,168.00,109.00,41.00,APPROVED
IA: MASON CITY,01/07/2012 23:55:00,,2355.00,1561.00,447.00,252.00,149.00,166.00,109.00,41.00,APPROVED
IA: MASON CITY,01/08/2012 00:55:00,,2382.00,1588.00,457.00,254.00,151.00,173.00,112.00,40.00,APPROVED
IA: MASON CITY,01/08/2012 01:56:00,,2417.00,1628.00,461.00,270.00,153.00,174.00,113.00,39.00,APPROVED
IA: MASON CITY,01/08/2012 02:56:00,,2524.00,1739.00,487.00,293.00,161.00,189.00,119.00,43.00,APPROVED
IA: MASON CITY,01/08/2012 03:56:00,,2612.00,1881.00,523.00,327.00,176.00,209.00,128.00,49.00,APPROVED
IA: MASON CITY,01/08/2012 04:56:00,,2652.00,1945.00,546.00,347.00,181.00,221.00,137.00,49.00,APPROVED
IA: MASON CITY,01/08/2012 05:57:00,,2681.00,1957.00,552.00,349.00,182.00,224.00,136.00,50.00,APPROVED
IA: MASON CITY,01/08/2012 06:57:00,,2719.00,2022.00,566.00,365.00,185.00,228.00,141.00,52.00,APPROVED
IA: MASON CITY,01/08/2012 07:57:00,,2763.00,2068.00,576.00,375.00,192.00,238.00,142.00,52.00,APPROVED
IA: MASON CITY,01/08/2012 08:57:00,,2777.00,2068.00,583.00,375.00,191.00,233.00,144.00,55.00,APPROVED
IA: MASON CITY,01/08/2012 09:57:00,,2775.00,2037.00,573.00,362.00,188.00,229.00,140.00,50.00,APPROVED
IA: MASON CITY,01/08/2012 10:58:00,,2786.00,2050.00,576.00,359.00,189.00,233.00,142.00,49.00,APPROVED
IA: MASON CITY,01/08/2012 11:58:00,,2871.00,2110.00,590.00,369.00,189.00,237.00,144.00,53.00,APPROVED
IA: MASON CITY,01/08/2012 12:58:00,,2906.00,2148.00,603.00,377.00,194.00,240.00,143.00,54.00,APPROVED
IA: MASON CITY,01/08/2012 13:58:00,,2909.00,2151.00,610.00,375.00,194.00,244.00,146.00,52.00,APPROVED
IA: MASON CITY,01/08/2012 14:58:00,,2880.00,2117.00,605.00,372.00,192.00,240.00,145.00,54.00,APPROVED
IA: MASON CITY,01/08/2012 15:59:00,,2831.00,2050.00,585.00,358.00,191.00,231.00,140.00,51.00,APPROVED
IA: MASON CITY,01/08/2012 16:59:00,,2716.00,1935.00,545.00,343.00,184.00,213.00,134.00,52.00,APPROVED
IA: MASON CITY,01/08/2012 17:59:00,,2603.00,1838.00,517.00,321.00,171.00,203.00,127.00,51.00,APPROVED
IA: MASON CITY,01/08/2012 18:59:00,,2526.00,1786.00,504.00,311.00,165.00,196.00,128.00,49.00,APPROVED
IA: MASON CITY,01/08/2012 20:00:00,,2467.00,1744.00,491.00,303.00,166.00,194.00,124.00,47.00,APPROVED
IA: MASON CITY,01/08/2012 21:00:00,,2445.00,1709.00,488.00,302.00,163.00,191.00,121.00,48.00,APPROVED
IA: MASON CITY,01/08/2012 22:00:00,,2445.00,1711.00,485.00,298.00,160.00,189.00,120.00,48.00,APPROVED
IA: MASON CITY,01/08/2012 23:00:00,,2492.00,1727.00,484.00,293.00,160.00,189.00,119.00,47.00,APPROVED
IA: MASON CITY,01/09/2012 00:00:00,,2549.00,1763.00,492.00,299.00,158.00,190.00,122.00,46.00,APPROVED
IA: MASON CITY,01/09/2012 01:01:00,,2549.00,1787.00,498.00,301.00,165.00,193.00,121.00,46.00,APPROVED
IA: MASON CITY,01/09/2012 02:01:00,,2565.00,1766.00,496.00,306.00,165.00,191.00,121.00,47.00,APPROVED
IA: MASON CITY,01/09/2012 03:01:00,,2567.00,1783.00,503.00,300.00,163.00,192.00,122.00,46.00,APPROVED
IA: MASON CITY,01/09/2012 04:01:00,,2557.00,1763.00,493.00,294.00,162.00,189.00,120.00,46.00,APPROVED
IA: MASON CITY,01/09/2012 05:01:00,,2549.00,1740.00,497.00,292.00,161.00,188.00,120.00,44.00,APPROVED
IA: MASON CITY,01/09/2012 06:02:00,,2566.00,1767.00,502.00,292.00,162.00,184.00,119.00,44.00,APPROVED
IA: MASON CITY,01/09/2012 07:02:00,,2553.00,1767.00,493.00,296.00,161.00,187.00,119.00,45.00,APPROVED
IA: MASON CITY,01/09/2012 08:02:00,,2546.00,1761.00,497.00,298.00,164.00,189.00,120.00,45.00,APPROVED
IA: MASON CITY,01/09/2012 09:02:00,,2550.00,1749.00,497.00,292.00,161.00,188.00,121.00,45.00,APPROVED
IA: MASON CITY,01/09/2012 10:03:00,,2520.00,1719.00,486.00,286.00,161.00,188.00,120.00,44.00,APPROVED
IA: MASON CITY,01/09/2012 11:03:00,,2508.00,1717.00,485.00,288.00,158.00,181.00,119.00,43.00,APPROVED
IA: MASON CITY,01/09/2012 12:03:00,,2529.00,1726.00,490.00,283.00,160.00,181.00,117.00,45.00,APPROVED
IA: MASON CITY,01/09/2012 13:03:00,,2531.00,1714.00,486.00,282.00,157.00,183.00,118.00,44.00,APPROVED
IA: MASON CITY,01/09/2012 14:03:00,,2538.00,1720.00,486.00,279.00,159.00,187.00,120.00,44.00,APPROVED
IA: MASON CITY,01/09/2012 15:04:00,,2565.00,1750.00,495.00,287.00,159.00,185.00,122.00,47.00,APPROVED
IA: MASON CITY,01/09/2012 16:04:00,,2560.00,1746.00,498.00,287.00,163.00,188.00,121.00,45.00,APPROVED
IA: MASON CITY,01/09/2012 17:04:00,,2538.00,1751.00,493.00,295.00,161.00,190.00,121.00,47.00,APPROVED
IA: MASON CITY,01/09/2012 18:04:00,,2513.00,1760.00,494.00,301.00,163.00,192.00,124.00,47.00,APPROVED
IA: MASON CITY,01/09/2012 19:05:00,,2489.00,1757.00,491.00,304.00,164.00,194.00,124.00,49.00,APPROVED
IA: MASON CITY,01/10/2012 06:07:00,,2689.00,1878.00,518.00,324.00,174.00,209.00,129.00,50.00,APPROVED
IA: MASON CITY,01/10/2012 07:07:00,,2688.00,1893.00,520.00,327.00,175.00,206.00,129.00,52.00,APPROVED
IA: MASON CITY,01/10/2012 08:07:00,,2746.00,1950.00,533.00,337.00,175.00,209.00,132.00,52.00,APPROVED
IA: MASON CITY,01/10/2012 09:08:00,,2786.00,1999.00,544.00,354.00,182.00,219.00,134.00,53.00,APPROVED
IA: MASON CITY,01/10/2012 10:08:00,,2832.00,2043.00,567.00,365.00,188.00,223.00,140.00,55.00,APPROVED
IA: MASON CITY,01/10/2012 11:08:00,,2829.00,2054.00,567.00,369.00,186.00,226.00,139.00,53.00,APPROVED
IA: MASON CITY,01/10/2012 12:08:00,,2868.00,2091.00,575.00,373.00,191.00,230.00,142.00,56.00,APPROVED
IA: MASON CITY,01/10/2012 13:08:00,,2856.00,2110.00,586.00,379.00,193.00,236.00,144.00,55.00,APPROVED
IA: MASON CITY,01/10/2012 14:09:00,,2888.00,2125.00,587.00,377.00,194.00,234.00,146.00,54.00,APPROVED
IA: MASON CITY,01/10/2012 15:09:00,,2851.00,2095.00,578.00,387.00,195.00,230.00,144.00,57.00,APPROVED
IA: MASON CITY,01/10/2012 16:09:00,,2794.00,2047.00,567.00,376.00,192.00,232.00,141.00,56.00,APPROVED
IA: MASON CITY,01/10/2012 17:09:00,,2618.00,1926.00,539.00,361.00,181.00,222.00,135.00,56.00,APPROVED
IA: MASON CITY,01/10/2012 18:09:00,,2472.00,1803.00,514.00,336.00,174.00,211.00,133.00,54.00,APPROVED
IA: MASON CITY,01/10/2012 19:43:00,,2313.00,1571.00,453.00,267.00,149.00,176.00,111.00,42.00,APPROVED
IA: MASON CITY,01/10/2012 20:43:00,,2214.00,1553.00,454.00,277.00,151.00,185.00,119.00,43.00,APPROVED
IA: MASON CITY,01/10/2012 21:43:00,,2199.00,1531.00,448.00,271.00,152.00,181.00,120.00,45.00,APPROVED
IA: MASON CITY,01/10/2012 22:43:00,,2316.00,1606.00,463.00,280.00,155.00,191.00,120.00,45.00,APPROVED
IA: MASON CITY,01/10/2012 23:44:00,,2363.00,1650.00,472.00,290.00,160.00,189.00,124.00,45.00,APPROVED
IA: MASON CITY,01/11/2012 00:44:00,,2418.00,1681.00,477.00,294.00,162.00,193.00,123.00,46.00,APPROVED
IA: MASON CITY,01/11/2012 01:44:00,,2467.00,1711.00,478.00,299.00,161.00,193.00,123.00,46.00,APPROVED
IA: MASON CITY,01/11/2012 02:44:00,,2508.00,1724.00,478.00,298.00,166.00,194.00,126.00,47.00,APPROVED
IA: MASON CITY,01/11/2012 03:45:00,,2548.00,1752.00,488.00,305.00,166.00,191.00,125.00,48.00,APPROVED
IA: MASON CITY,01/11/2012 04:45:00,,2554.00,1768.00,493.00,307.00,168.00,195.00,123.00,48.00,APPROVED
IA: MASON CITY,01/11/2012 05:45:00,,2603.00,1802.00,498.00,310.00,167.00,199.00,125.00,49.00,APPROVED
IA: MASON CITY,01/11/2012 06:45:00,,2634.00,1841.00,507.00,320.00,172.00,204.00,127.00,50.00,APPROVED
IA: MASON CITY,01/11/2012 07:45:00,,2646.00,1861.00,513.00,322.00,174.00,202.00,128.00,49.00,APPROVED
IA: MASON CITY,01/11/2012 08:46:00,,2640.00,1864.00,523.00,330.00,175.00,205.00,128.00,51.00,APPROVED
IA: MASON CITY,01/11/2012 09:46:00,,2678.00,1885.00,527.00,331.00,173.00,207.00,129.00,52.00,APPROVED
IA: MASON CITY,01/11/2012 10:46:00,,2716.00,1915.00,532.00,334.00,178.00,212.00,128.00,51.00,APPROVED
IA: MASON CITY,01/11/2012 11:46:00,,2783.00,1973.00,540.00,350.00,181.00,219.00,133.00,51.00,APPROVED
IA: MASON CITY,01/11/2012 12:47:00,,2812.00,2012.00,558.00,361.00,187.00,226.00,138.00,51.00,APPROVED
IA: MASON CITY,01/11/2012 13:47:00,,2825.00,2016.00,565.00,365.00,187.00,223.00,139.00,53.00,APPROVED
IA: MASON CITY,01/11/2012 14:47:00,,2908.00,2065.00,578.00,367.00,190.00,224.00,137.00,53.00,APPROVED
IA: MASON CITY,01/11/2012 15:47:00,,3011.00,2145.00,580.00,378.00,195.00,235.00,143.00,55.00,APPROVED
IA: MASON CITY,01/11/2012 16:47:00,,2890.00,2071.00,565.00,375.00,192.00,229.00,141.00,57.00,APPROVED